GW0352 Weather Reports


time (UTC)temp
F
wind
direction
speed
knots
gust
knots
rain 1hr
in
rain 24hr
in
rain mn
in
humidity
%
barometer
mb
20260507164040 62 233 7.0 13.9 0.00 0.00 0.00 48 1016.9
20260507163540 62 242 7.0 11.3 0.00 0.00 0.00 49 1017.0
20260507163049 62 249 5.2 11.3 0.00 0.00 0.00 50 1017.1
20260507162540 62 232 6.1 11.3 0.00 0.00 0.00 49 1017.1
20260507162043 61 159 5.2 11.3 0.00 0.00 0.00 51 1017.2
20260507161604 61 208 7.0 11.3 0.00 0.00 0.00 52 1017.1
20260507161040 61 178 5.2 11.3 0.00 0.00 0.00 52 1017.3
20260507160540 61 254 6.1 11.3 0.00 0.00 0.00 51 1017.3
20260507160047 61 252 4.3 11.3 0.00 0.00 0.00 53 1017.2
20260507155540 60 252 6.1 13.0 0.00 0.00 0.00 52 1017.2
20260507155040 60 313 3.5 13.0 0.00 0.00 0.00 53 1017.2
20260507154551 60 247 7.0 11.3 0.00 0.00 0.00 53 1017.4
20260507154040 60 178 4.3 12.2 0.00 0.00 0.00 55 1017.4
20260507153539 60 236 5.2 12.2 0.00 0.00 0.00 56 1017.5
20260507153057 59 252 6.1 12.2 0.00 0.00 0.00 55 1017.5
20260507152540 59 216 5.2 11.3 0.00 0.00 0.00 57 1017.5
20260507152040 58 234 5.2 11.3 0.00 0.00 0.00 57 1017.5
20260507151543 58 161 5.2 11.3 0.00 0.00 0.00 58 1017.7
20260507151039 58 193 6.1 11.3 0.00 0.00 0.00 58 1017.8
20260507150540 58 271 5.2 10.4 0.00 0.00 0.00 60 1017.8
20260507150055 57 275 4.3 10.4 0.00 0.00 0.00 61 1017.8
20260507145540 57 247 3.5 11.3 0.00 0.00 0.00 62 1017.9
20260507145043 56 250 3.5 11.3 0.00 0.00 0.00 64 1018.0
20260507144551 56 294 3.5 11.3 0.00 0.00 0.00 63 1018.0
20260507144043 56 319 5.2 10.4 0.00 0.00 0.00 64 1018.1
20260507143539 56 248 3.5 10.4 0.00 0.00 0.00 66 1018.1
20260507143051 55 225 2.6 10.4 0.00 0.00 0.00 67 1018.1
20260507142540 55 288 2.6 9.6 0.00 0.00 0.00 67 1018.2
20260507142040 54 275 3.5 9.6 0.00 0.00 0.00 68 1018.1
20260507141559 54 252 5.2 9.6 0.00 0.00 0.00 68 1018.2
20260507141044 54 282 3.5 10.4 0.00 0.00 0.00 70 1018.2
20260507140540 53 268 3.5 10.4 0.00 0.00 0.00 70 1018.3
20260507140051 53 265 6.1 10.4 0.00 0.00 0.00 72 1018.3
20260507135540 53 259 4.3 8.7 0.00 0.00 0.00 74 1018.5
20260507135040 52 236 2.6 10.4 0.00 0.00 0.00 76 1018.4
20260507134545 51 232 2.6 10.4 0.00 0.00 0.00 78 1018.5
20260507134039 51 236 2.6 9.6 0.00 0.00 0.00 80 1018.5
20260507133540 50 319 4.3 8.7 0.00 0.00 0.00 82 1018.5
20260507133044 50 246 2.6 7.0 0.00 0.00 0.00 84 1018.5
20260507132539 49 265 1.7 6.1 0.00 0.00 0.00 86 1018.5
20260507132039 49 9 0.9 5.2 0.00 0.00 0.00 87 1018.5
20260507131542 48 298 1.7 3.5 0.00 0.00 0.00 87 1018.6
20260507131043 47 280 0.9 3.5 0.00 0.00 0.00 87 1018.6
20260507130539 47 265 0.9 3.5 0.00 0.00 0.00 88 1018.6
20260507130046 47 227 0.9 3.5 0.00 0.00 0.00 88 1018.6
20260507125540 46 245 0.9 3.5 0.00 0.00 0.00 88 1018.6
20260507125040 46 259 0.9 2.6 0.00 0.00 0.00 88 1018.5
20260507124543 45 178 0.9 2.6 0.00 0.00 0.00 88 1018.5
20260507124039 45 0 0.0 1.7 0.00 0.00 0.00 88 1018.4
20260507123540 44 0 0.0 1.7 0.00 0.00 0.00 88 1018.3
20260507123045 44 212 0.0 1.7 0.00 0.00 0.00 88 1018.3
20260507122539 43 0 0.0 1.7 0.00 0.00 0.00 87 1018.3
20260507122039 43 178 0.0 1.7 0.00 0.00 0.00 87 1018.4
20260507121545 43 178 0.0 1.7 0.00 0.00 0.00 87 1018.5
20260507121040 42 162 0.0 1.7 0.00 0.00 0.00 86 1018.4
20260507120539 42 0 0.0 1.7 0.00 0.00 0.00 86 1018.3
20260507120100 42 325 0.0 1.7 0.00 0.00 0.00 86 1018.4
20260507115539 42 265 0.0 0.9 0.00 0.00 0.00 86 1018.2
20260507115043 42 0 0.0 0.9 0.00 0.00 0.00 85 1018.1
20260507114547 42 205 0.0 0.9 0.00 0.00 0.00 85 1018.1
20260507114040 42 0 0.0 0.9 0.00 0.00 0.00 85 1018.0
20260507113540 42 0 0.0 0.9 0.00 0.00 0.00 85 1018.0
20260507113051 42 0 0.0 0.9 0.00 0.00 0.00 84 1018.0
20260507112540 43 0 0.0 0.9 0.00 0.00 0.00 84 1018.0
20260507112040 43 0 0.0 0.9 0.00 0.00 0.00 84 1018.0
20260507111549 43 0 0.0 0.9 0.00 0.00 0.00 84 1018.0
20260507111039 43 0 0.0 0.9 0.00 0.00 0.00 84 1018.0
20260507110540 43 0 0.0 0.9 0.00 0.00 0.00 84 1018.0
20260507110059 43 51 0.0 0.9 0.00 0.00 0.00 83 1018.0
20260507105539 43 0 0.0 0.9 0.00 0.00 0.00 83 1018.0
20260507105039 43 0 0.0 0.9 0.00 0.00 0.00 83 1018.0
20260507104544 43 178 0.0 0.9 0.00 0.00 0.00 82 1018.0
20260507104039 43 0 0.0 0.9 0.00 0.00 0.00 82 1018.0
20260507103539 43 0 0.0 0.9 0.00 0.00 0.00 82 1018.1
20260507103048 43 291 0.0 0.9 0.00 0.00 0.00 81 1018.1
20260507102539 44 0 0.0 0.9 0.00 0.00 0.00 81 1018.2
20260507102042 44 0 0.0 1.7 0.00 0.00 0.00 81 1018.3
20260507101559 44 0 0.0 1.7 0.00 0.00 0.00 81 1018.4
20260507101039 44 9 0.0 0.9 0.00 0.00 0.00 80 1018.5
20260507100542 44 9 0.0 0.9 0.00 0.00 0.00 80 1018.3
20260507100049 45 0 0.0 0.9 0.00 0.00 0.00 79 1018.4
20260507095540 45 0 0.0 0.9 0.00 0.00 0.00 79 1018.5
20260507095039 45 0 0.0 0.9 0.00 0.00 0.00 79 1018.4
20260507094550 45 0 0.0 0.9 0.00 0.00 0.00 78 1018.5
20260507094039 46 0 0.0 0.9 0.00 0.00 0.00 78 1018.5
20260507093539 46 0 0.0 0.9 0.00 0.00 0.00 78 1018.4
20260507093050 46 0 0.0 0.9 0.00 0.00 0.00 78 1018.3
20260507092539 46 0 0.0 0.9 0.00 0.00 0.00 78 1018.5
20260507092042 47 0 0.0 0.9 0.00 0.00 0.00 78 1018.5
20260507091549 47 0 0.0 0.9 0.00 0.00 0.00 78 1018.5
20260507091039 47 0 0.0 0.9 0.00 0.00 0.00 78 1018.5
20260507090541 47 0 0.0 0.9 0.00 0.00 0.00 78 1018.4
20260507090055 48 0 0.0 1.7 0.00 0.00 0.00 78 1018.5
20260507085541 48 239 0.0 1.7 0.00 0.01 0.00 78 1018.5
20260507085043 48 232 0.0 1.7 0.00 0.01 0.00 78 1018.4
20260507084551 48 221 0.0 1.7 0.00 0.01 0.00 78 1018.4
20260507084040 48 221 0.0 1.7 0.00 0.01 0.00 79 1018.4
20260507083539 48 0 0.0 1.7 0.00 0.01 0.00 79 1018.5
20260507083049 48 0 0.0 1.7 0.00 0.01 0.00 79 1018.5
20260507082539 48 239 0.9 1.7 0.00 0.01 0.00 79 1018.5
20260507082039 48 250 0.9 1.7 0.00 0.01 0.00 79 1018.7
20260507081551 48 0 0.0 0.9 0.00 0.01 0.00 79 1018.6
20260507081040 48 0 0.0 0.9 0.00 0.01 0.00 79 1018.6
20260507080540 48 0 0.0 0.9 0.00 0.01 0.00 79 1018.6
20260507080054 48 0 0.0 1.7 0.00 0.01 0.00 79 1018.7
20260507075539 48 0 0.0 1.7 0.00 0.01 0.00 79 1018.8
20260507075040 48 178 0.0 1.7 0.00 0.01 0.00 79 1018.8
20260507074553 48 0 0.0 1.7 0.00 0.01 0.00 79 1018.8
20260507074039 48 0 0.0 1.7 0.00 0.01 0.00 79 1018.9
20260507073540 48 221 0.0 1.7 0.00 0.01 0.00 79 1018.8
20260507073059 48 178 0.0 0.9 0.00 0.01 0.00 79 1018.9
20260507072540 48 162 0.0 1.7 0.00 0.01 0.00 79 1018.9
20260507072039 48 178 0.0 1.7 0.00 0.01 0.00 79 1019.0
20260507071548 48 0 0.0 0.9 0.00 0.01 0.00 79 1019.1
20260507071039 48 265 0.0 0.9 0.00 0.01 0.00 80 1019.1
20260507070539 48 0 0.0 1.7 0.00 0.01 0.00 80 1019.1
20260507070047 48 0 0.0 1.7 0.00 0.01 0.00 80 1019.1
20260507065539 48 334 0.9 1.7 0.00 0.01 0.00 80 1019.2
20260507065039 48 319 0.0 2.6 0.00 0.01 0.00 80 1019.3
20260507064605 48 9 0.0 2.6 0.00 0.01 0.00 80 1019.4
20260507064039 48 205 0.9 2.6 0.00 0.01 0.00 80 1019.3
20260507063538 48 205 0.0 1.7 0.00 0.01 0.00 80 1019.2
20260507063057 47 205 0.0 1.7 0.00 0.01 0.00 80 1019.1
20260507062539 47 178 0.0 1.7 0.00 0.01 0.00 80 1019.2
20260507062040 47 221 0.0 1.7 0.00 0.01 0.00 80 1019.2
20260507061545 47 178 0.0 1.7 0.00 0.01 0.00 80 1019.2
20260507061039 47 239 0.0 1.7 0.00 0.01 0.00 80 1019.3
20260507060540 47 250 0.0 1.7 0.00 0.01 0.00 79 1019.3
20260507060052 47 221 0.0 1.7 0.00 0.01 0.00 79 1019.1
20260507055540 47 0 0.0 1.7 0.00 0.01 0.00 79 1019.3
20260507055040 47 9 0.0 1.7 0.00 0.01 0.00 79 1019.6
20260507054550 47 0 0.0 0.9 0.00 0.01 0.00 79 1019.5
20260507054041 47 221 0.0 1.7 0.00 0.01 0.00 78 1019.5
20260507053541 47 196 0.0 1.7 0.00 0.01 0.00 78 1019.6
20260507053050 47 0 0.0 1.7 0.00 0.01 0.00 77 1019.5
20260507052541 47 0 0.0 0.9 0.00 0.01 0.00 76 1019.3
20260507052041 47 0 0.0 0.9 0.00 0.01 0.00 75 1019.3
20260507051545 47 0 0.0 0.9 0.00 0.01 0.00 75 1019.3
20260507051044 47 111 0.0 0.9 0.00 0.01 0.00 74 1019.2
20260507050540 48 0 0.0 0.9 0.00 0.01 0.00 74 1019.4
20260507050047 48 0 0.0 0.9 0.00 0.01 0.00 73 1019.3
20260507045542 48 0 0.0 0.9 0.00 0.01 0.01 73 1019.2
20260507045041 48 0 0.0 0.9 0.00 0.01 0.01 72 1019.2
20260507044554 49 0 0.0 0.9 0.00 0.01 0.01 73 1019.2
20260507044040 49 0 0.0 0.9 0.00 0.01 0.01 72 1019.2
20260507043540 49 0 0.0 0.9 0.00 0.01 0.01 71 1019.1
20260507043052 50 0 0.0 1.7 0.00 0.01 0.01 71 1019.1
20260507042542 50 51 0.0 1.7 0.00 0.01 0.01 71 1019.2
20260507042041 50 0 0.0 1.7 0.00 0.01 0.01 70 1019.1
20260507041558 50 0 0.0 0.9 0.00 0.01 0.01 69 1019.1
20260507041044 51 0 0.0 0.9 0.00 0.01 0.01 68 1019.1
20260507040543 51 0 0.0 0.9 0.00 0.01 0.01 68 1018.8
20260507040105 51 309 0.0 0.9 0.00 0.01 0.01 67 1019.0
20260507035543 51 0 0.0 1.7 0.00 0.01 0.01 67 1019.1
20260507035041 51 0 0.0 1.7 0.00 0.01 0.01 68 1019.2
20260507034610 52 250 0.9 1.7 0.00 0.01 0.01 67 1019.2
20260507034041 52 265 0.0 1.7 0.00 0.01 0.01 66 1019.2
20260507033541 52 250 0.9 3.5 0.00 0.01 0.01 65 1019.3
20260507033105 53 0 0.0 3.5 0.00 0.01 0.01 64 1019.1
20260507032544 53 61 0.9 3.5 0.00 0.01 0.01 64 1019.0
20260507032040 53 0 0.0 0.9 0.00 0.01 0.01 63 1018.9
20260507031551 53 0 0.0 0.9 0.00 0.01 0.01 64 1018.9
20260507031040 54 0 0.0 0.9 0.00 0.01 0.01 63 1019.1
20260507030545 54 0 0.0 0.9 0.00 0.01 0.01 62 1018.9
20260507030051 54 0 0.0 0.9 0.00 0.01 0.01 61 1019.0
20260507025542 54 0 0.0 0.9 0.00 0.01 0.01 61 1019.0
20260507025040 54 0 0.0 1.7 0.00 0.01 0.01 61 1018.9
20260507024557 55 0 0.0 1.7 0.00 0.01 0.01 61 1018.9
20260507024043 55 0 0.0 1.7 0.00 0.01 0.01 59 1018.9
20260507023545 55 0 0.0 1.7 0.00 0.01 0.01 59 1018.8
20260507023047 55 0 0.0 1.7 0.00 0.01 0.01 59 1018.7
20260507022541 56 309 0.0 0.9 0.00 0.01 0.01 59 1018.7
20260507022041 56 0 0.0 0.9 0.00 0.01 0.01 59 1018.6
20260507021558 56 0 0.0 1.7 0.00 0.01 0.01 58 1018.6
20260507021044 56 0 0.0 1.7 0.00 0.01 0.01 58 1018.7
20260507020541 56 265 0.0 1.7 0.00 0.01 0.01 57 1018.6
20260507020057 56 298 0.9 1.7 0.00 0.01 0.01 55 1018.5
20260507015543 56 292 0.9 1.7 0.00 0.01 0.01 56 1018.3
20260507015041 57 221 0.0 2.6 0.00 0.01 0.01 53 1018.2
20260507014554 57 22 0.9 2.6 0.00 0.01 0.01 52 1018.1
20260507014040 57 22 0.9 2.6 0.00 0.01 0.01 51 1018.1
20260507013540 57 0 1.7 3.5 0.00 0.01 0.01 51 1017.9
20260507013103 57 26 0.9 4.3 0.00 0.01 0.01 51 1017.9
20260507012542 57 15 1.7 4.3 0.00 0.01 0.01 51 1017.9
20260507012041 57 15 1.7 4.3 0.00 0.01 0.01 50 1017.8
20260507011544 57 20 2.6 4.3 0.00 0.01 0.01 50 1017.8
20260507011044 57 15 2.6 6.1 0.00 0.01 0.01 50 1017.8
20260507010540 57 22 3.5 6.1 0.00 0.01 0.01 49 1017.7
20260507010051 57 25 2.6 5.2 0.00 0.01 0.01 49 1017.8
20260507005541 58 13 2.6 7.0 0.00 0.01 0.01 48 1017.8
20260507005040 58 30 1.7 7.0 0.00 0.01 0.01 48 1017.9
20260507004551 58 24 3.5 7.0 0.00 0.01 0.01 48 1017.8
20260507004040 58 36 3.5 7.8 0.00 0.01 0.01 47 1017.8
20260507003542 58 38 4.3 7.8 0.00 0.01 0.01 47 1017.8
20260507003051 58 40 3.5 7.8 0.00 0.01 0.01 47 1017.8
20260507002540 58 32 4.3 7.8 0.00 0.01 0.01 46 1017.8
20260507002041 58 20 4.3 7.8 0.00 0.01 0.01 46 1017.9
20260507001604 58 23 3.5 8.7 0.00 0.01 0.01 46 1017.8
20260507001040 58 22 4.3 9.6 0.00 0.01 0.01 45 1017.7
20260507000540 59 344 4.3 9.6 0.00 0.01 0.01 46 1017.7
20260507000046 59 346 5.2 9.6 0.00 0.01 0.01 45 1017.7
20260506235541 59 28 3.5 7.8 0.00 0.01 0.01 46 1017.6
20260506235040 59 337 3.5 7.8 0.00 0.01 0.01 46 1017.5
20260506234557 59 330 2.6 10.4 0.00 0.01 0.01 45 1017.6
20260506234040 59 29 4.3 10.4 0.00 0.01 0.01 44 1017.5
20260506233541 59 9 6.1 10.4 0.00 0.01 0.01 44 1017.4
20260506233045 59 18 5.2 10.4 0.00 0.01 0.01 44 1017.5
20260506232540 59 30 4.3 7.8 0.00 0.01 0.01 45 1017.4
20260506232041 59 347 3.5 9.6 0.00 0.01 0.01 45 1017.4
20260506231545 59 11 5.2 9.6 0.00 0.01 0.01 44 1017.5
20260506231041 60 36 4.3 9.6 0.00 0.01 0.01 44 1017.4
20260506230540 59 20 4.3 9.6 0.00 0.01 0.01 44 1017.3
20260506230052 60 41 5.2 8.7 0.00 0.01 0.01 44 1017.4
20260506225543 60 19 3.5 11.3 0.00 0.01 0.01 44 1017.5
20260506225041 60 342 5.2 11.3 0.00 0.01 0.01 44 1017.4
20260506224605 60 53 7.8 11.3 0.00 0.01 0.01 43 1017.3
20260506224040 61 25 2.6 9.6 0.00 0.01 0.01 43 1017.2
20260506223540 61 23 4.3 11.3 0.00 0.01 0.01 42 1017.2
20260506223054 61 36 5.2 11.3 0.00 0.01 0.01 42 1017.1
20260506222541 61 31 7.8 13.0 0.00 0.01 0.01 41 1017.1
20260506222040 62 45 8.7 13.0 0.00 0.01 0.01 41 1017.1
20260506221549 62 21 4.3 9.6 0.00 0.01 0.01 42 1017.1
20260506221040 61 23 3.5 9.6 0.00 0.01 0.01 40 1017.1
20260506220541 61 338 5.2 9.6 0.00 0.01 0.01 41 1017.1
20260506215541 61 25 5.2 11.3 0.00 0.01 0.01 44 1017.2
20260506215041 60 28 5.2 11.3 0.00 0.01 0.01 43 1017.2
20260506214549 60 19 3.5 11.3 0.00 0.01 0.01 43 1017.3
20260506214042 60 36 7.0 11.3 0.00 0.01 0.01 42 1017.4
20260506213540 61 22 7.0 11.3 0.00 0.01 0.01 43 1017.3
20260506213049 61 344 4.3 11.3 0.00 0.01 0.01 41 1017.4
20260506212540 60 331 5.2 11.3 0.00 0.01 0.01 42 1017.3
20260506212040 60 24 6.1 11.3 0.00 0.01 0.01 42 1017.3
20260506211556 60 24 7.8 11.3 0.00 0.01 0.01 42 1017.4
20260506211040 60 33 4.3 11.3 0.00 0.01 0.01 41 1017.5
20260506210540 60 23 6.1 11.3 0.00 0.01 0.01 42 1017.6
20260506210057 61 69 3.5 9.6 0.00 0.01 0.01 43 1017.6
20260506205540 60 34 5.2 9.6 0.00 0.01 0.01 42 1017.5
20260506205040 61 53 6.1 11.3 0.00 0.01 0.01 42 1017.6
20260506204558 61 9 6.1 11.3 0.00 0.01 0.01 42 1017.7
20260506204039 61 46 8.7 11.3 0.00 0.01 0.01 43 1017.8
20260506203540 61 15 6.1 12.2 0.00 0.01 0.01 44 1017.9
20260506203058 61 334 6.1 12.2 0.00 0.01 0.01 43 1017.9
20260506202543 60 309 7.0 11.3 0.00 0.01 0.01 44 1018.1
20260506202041 60 51 2.6 12.2 0.00 0.01 0.01 44 1018.1
20260506201553 60 107 6.1 12.2 0.00 0.01 0.01 43 1018.2
20260506201040 61 51 5.2 12.2 0.00 0.01 0.01 41 1018.3
20260506200540 60 34 3.5 13.9 0.00 0.01 0.01 44 1018.3
20260506200047 60 45 6.1 13.9 0.00 0.01 0.01 42 1018.4
20260506195540 59 32 5.2 13.0 0.00 0.01 0.01 44 1018.5
20260506195041 59 134 4.3 13.0 0.00 0.01 0.01 46 1018.6
20260506194552 59 36 6.1 13.0 0.00 0.01 0.01 44 1018.5
20260506194040 59 28 3.5 11.3 0.00 0.01 0.01 45 1018.7
20260506193539 59 24 6.1 11.3 0.00 0.01 0.01 43 1018.7
20260506193052 60 265 7.8 11.3 0.00 0.01 0.01 43 1018.5
20260506192540 59 178 5.2 13.0 0.00 0.01 0.01 44 1018.6
20260506192040 59 53 7.0 13.0 0.00 0.01 0.01 44 1018.6
20260506191548 59 128 6.1 12.2 0.00 0.01 0.01 46 1018.6
20260506191041 59 40 9.6 12.2 0.00 0.01 0.01 45 1018.6
20260506190544 58 348 7.0 11.3 0.00 0.01 0.01 46 1018.6
20260506190051 58 34 5.2 12.2 0.00 0.01 0.01 48 1018.7
20260506185540 58 48 7.0 12.2 0.00 0.01 0.01 48 1018.7
20260506185040 58 24 6.1 10.4 0.00 0.01 0.01 47 1018.7
20260506184550 58 105 6.1 12.2 0.00 0.01 0.01 47 1018.6
20260506184040 58 61 7.8 13.0 0.00 0.01 0.01 48 1018.8
20260506183543 58 39 5.2 13.0 0.00 0.01 0.01 49 1018.7
20260506183051 58 98 8.7 13.0 0.00 0.01 0.01 49 1018.8
20260506182540 58 20 7.8 12.2 0.00 0.01 0.01 49 1018.8
20260506182040 57 61 7.0 12.2 0.00 0.01 0.01 47 1018.9
20260506181600 57 21 7.8 12.2 0.00 0.01 0.01 48 1019.2
20260506181040 57 33 6.1 13.9 0.00 0.01 0.01 48 1019.2
20260506180541 56 26 7.8 13.9 0.00 0.01 0.01 48 1019.3
20260506180055 57 344 8.7 13.0 0.00 0.01 0.01 46 1019.4
20260506175540 57 24 7.8 13.0 0.00 0.01 0.01 51 1019.4
20260506175042 57 40 7.8 13.0 0.00 0.01 0.01 47 1019.5
20260506174549 57 50 7.0 12.2 0.00 0.01 0.01 49 1019.5
20260506174040 56 44 8.7 12.2 0.00 0.01 0.01 52 1019.6
20260506173542 56 49 5.2 12.2 0.00 0.01 0.01 52 1019.6
20260506173119 56 48 7.8 12.2 0.00 0.01 0.01 52 1019.7
20260506172540 56 93 7.8 12.2 0.00 0.01 0.01 52 1019.6
20260506172041 55 51 7.0 11.3 0.00 0.01 0.01 55 1019.6
20260506171553 55 17 9.6 11.3 0.00 0.01 0.01 56 1019.7
20260506171040 55 350 8.7 12.2 0.00 0.01 0.01 56 1019.6
20260506170540 55 27 8.7 12.2 0.00 0.01 0.01 56 1019.6
20260506170055 54 38 8.7 12.2 0.00 0.01 0.01 56 1019.6
20260506165543 54 34 8.7 12.2 0.00 0.01 0.01 56 1019.6
20260506165040 54 55 8.7 12.2 0.00 0.01 0.01 58 1019.5
20260506164549 55 50 7.8 11.3 0.00 0.01 0.01 58 1019.6